Location: *
(46.3500°N, 10.9000°E)
Time: 10:29:50
(UTC+00:00)

Envisat - Visible Passes

Search period start: 04 March 2021 00:00
Search period end: 14 March 2021 00:00
Orbit: 764 x 766 km, 98.1° (Epoch: 03 March)

Date Brightness Start Highest point End Pass type
(mag) Time Alt. Az. Time Alt. Az. Time Alt. Az.
04 Mar 4.6 04:23:29 10° NNE 04:28:12 37° E 04:32:52 10° SSE visible
05 Mar 5.9 03:47:37 10° NE 03:51:02 18° E 03:54:26 10° SE visible
06 Mar 3.6 04:48:38 10° NNE 04:53:42 63° E 04:58:43 10° S visible
06 Mar 6.8 17:50:03 10° W 17:50:38 10° W 17:51:13 10° WNW visible
07 Mar 5.1 04:12:14 10° NNE 04:16:41 30° E 04:21:06 10° SSE visible
08 Mar 6.0 03:36:47 10° NE 03:39:28 14° E 03:42:08 10° ESE visible
09 Mar 4.1 04:37:16 10° NNE 04:42:14 50° E 04:47:09 10° S visible
09 Mar 6.5 17:36:39 10° WSW 17:39:02 13° W 17:41:26 10° WNW visible
10 Mar 5.4 04:01:04 10° NE 04:05:09 24° E 04:09:14 10° SE visible
11 Mar 6.3 03:26:26 10° ENE 03:27:52 11° E 03:29:18 10° ESE visible
11 Mar 3.1 05:02:33 10° NNE 05:07:41 84° ESE 05:12:45 10° SSW visible
12 Mar 4.5 04:25:58 10° NNE 04:30:45 40° E 04:35:30 10° SSE visible
13 Mar 5.8 03:49:59 10° NE 03:53:37 19° E 03:57:13 10° SE visible
